CW1035 Weather Reports


Display with metric or nautical units.
time (UTC)temp
F
wind
direction
speed
MPH
gust
MPH
rain 1hr
in
rain 24hr
in
rain mn
in
humidity
%
barometer
mb
20260905095753 54 289 5.0 5.0 0.00 0.07 0.00 91 1017.6
20260905095253 54 241 2.0 5.0 0.00 0.07 0.00 91 1017.5
20260905094753 54 279 2.0 4.0 0.00 0.07 0.00 91 1017.6
20260905094253 54 264 2.0 5.0 0.00 0.07 0.00 91 1017.5
20260905093753 54 270 2.0 6.0 0.00 0.07 0.00 91 1017.6
20260905092752 54 260 3.0 6.0 0.00 0.07 0.00 92 1017.7
20260905091752 54 271 2.0 5.0 0.00 0.07 0.00 92 1017.7
20260905091253 54 248 2.0 5.0 0.00 0.07 0.00 92 1017.7
20260905090752 54 262 4.0 5.0 0.00 0.07 0.00 92 1017.6
20260905090252 54 262 3.0 3.0 0.00 0.07 0.00 92 1017.6
20260905085752 54 259 2.0 3.0 0.00 0.07 0.00 91 1017.6
20260905084752 55 257 2.0 4.0 0.00 0.07 0.00 91 1017.5
20260905084251 55 266 3.0 4.0 0.00 0.07 0.00 91 1017.5
20260905083752 55 259 2.0 4.0 0.00 0.07 0.00 91 1017.5
20260905083251 55 262 2.0 4.0 0.00 0.07 0.00 90 1017.4
20260905082752 55 280 2.0 4.0 0.00 0.07 0.00 90 1017.4
20260905081752 55 278 2.0 5.0 0.00 0.07 0.00 91 1017.3
20260905081251 55 282 3.0 5.0 0.00 0.07 0.00 90 1017.3
20260905080751 55 264 3.0 5.0 0.00 0.07 0.00 90 1017.3
20260905080251 55 281 3.0 5.0 0.00 0.07 0.00 90 1017.4
20260905075751 55 268 1.0 5.0 0.00 0.07 0.00 90 1017.4
20260905075251 55 269 4.0 5.0 0.00 0.07 0.00 90 1017.4
20260905074751 55 278 4.0 4.0 0.00 0.07 0.00 90 1017.4
20260905074250 55 280 1.0 4.0 0.00 0.07 0.00 90 1017.3
20260905073750 55 286 3.0 4.0 0.00 0.07 0.00 90 1017.3
20260905072750 55 278 2.0 4.0 0.00 0.07 0.00 90 1017.2
20260905072250 55 271 2.0 5.0 0.00 0.07 0.00 90 1017.2
20260905071749 55 283 4.0 5.0 0.00 0.07 0.00 90 1017.3
20260905071249 55 262 1.0 4.0 0.00 0.07 0.00 90 1017.3
20260905070249 56 283 4.0 5.0 0.00 0.07 0.00 89 1017.2
20260905065750 56 265 3.0 5.0 0.00 0.07 0.07 88 1017.2
20260905064749 56 269 2.0 2.0 0.00 0.07 0.07 88 1017.1
20260905063749 56 268 0.0 0.0 0.00 0.07 0.07 88 1017.0
20260905062748 56 268 0.0 0.0 0.00 0.07 0.07 88 1016.9
20260905062249 56 268 0.0 0.0 0.00 0.07 0.07 88 1016.9
20260905061748 56 268 0.0 0.0 0.00 0.07 0.07 87 1016.9
20260905061248 57 268 0.0 0.0 0.00 0.07 0.07 87 1016.9
20260905060748 57 268 0.0 0.0 0.00 0.07 0.07 87 1017.0
20260905060248 57 268 0.0 0.0 0.00 0.07 0.07 86 1016.9
20260905055748 57 268 0.0 2.0 0.00 0.07 0.07 86 1016.9
20260905055248 57 268 0.0 2.0 0.00 0.07 0.07 86 1016.9
20260905054748 57 268 1.0 2.0 0.00 0.07 0.07 86 1016.8
20260905054248 57 268 2.0 2.0 0.00 0.07 0.07 86 1016.9
20260905053748 57 268 0.0 1.0 0.00 0.07 0.07 87 1016.9
20260905053248 57 268 0.0 1.0 0.00 0.07 0.07 87 1016.8
20260905052248 57 268 0.0 3.0 0.00 0.07 0.07 87 1016.9
20260905051747 56 268 2.0 4.0 0.00 0.07 0.07 88 1016.8
20260905051247 56 271 1.0 4.0 0.00 0.07 0.07 88 1016.8
20260905050747 56 264 2.0 3.0 0.00 0.07 0.07 88 1016.8
20260905050247 56 276 2.0 3.0 0.00 0.07 0.07 88 1016.8
20260905045747 56 271 1.0 4.0 0.00 0.07 0.07 88 1016.9
20260905045247 56 268 2.0 4.0 0.00 0.07 0.07 88 1016.9
20260905044747 56 277 4.0 4.0 0.00 0.07 0.07 88 1016.9
20260905044247 56 280 2.0 4.0 0.00 0.07 0.07 88 1016.8
20260905043747 56 275 0.0 5.0 0.00 0.07 0.07 88 1016.9
20260905043247 57 262 1.0 5.0 0.00 0.07 0.07 88 1016.9
20260905042746 57 278 3.0 5.0 0.00 0.07 0.07 87 1016.9
20260905042247 57 254 4.0 4.0 0.00 0.07 0.07 86 1016.8
20260905041747 57 274 0.0 4.0 0.00 0.07 0.07 86 1016.9
20260905040746 58 283 1.0 3.0 0.00 0.07 0.07 84 1016.9
20260905040246 58 268 1.0 2.0 0.00 0.07 0.07 84 1016.9
20260905035746 58 268 0.0 0.0 0.00 0.07 0.07 83 1016.8
20260905034746 59 268 0.0 0.0 0.00 0.07 0.07 82 1016.8
20260905034246 59 268 0.0 0.0 0.00 0.07 0.07 82 1016.8
20260905033246 59 268 0.0 0.0 0.00 0.07 0.07 80 1016.7
20260905032746 60 267 0.0 0.0 0.00 0.07 0.07 80 1016.7
20260905032246 60 268 0.0 0.0 0.00 0.07 0.07 79 1016.7
20260905031745 60 268 0.0 0.0 0.00 0.07 0.07 78 1016.6
20260905030745 60 268 0.0 0.0 0.00 0.07 0.07 79 1016.5
20260905030245 60 268 0.0 0.0 0.00 0.07 0.07 78 1016.5
20260905025745 60 268 0.0 0.0 0.00 0.07 0.07 78 1016.4
20260905025245 61 268 0.0 0.0 0.00 0.07 0.07 78 1016.4
20260905024745 61 268 0.0 2.0 0.00 0.07 0.07 78 1016.4
20260905024244 61 268 0.0 2.0 0.00 0.07 0.07 77 1016.4
20260905023744 61 268 2.0 3.0 0.00 0.07 0.07 77 1016.2
20260905023244 61 268 2.0 3.0 0.00 0.07 0.07 77 1016.2
20260905022744 62 287 2.0 4.0 0.00 0.07 0.07 76 1016.2
20260905021744 62 255 2.0 5.0 0.00 0.07 0.07 75 1016.1
20260905021244 63 269 1.0 5.0 0.00 0.07 0.07 75 1016.1
20260905020744 63 276 1.0 5.0 0.00 0.07 0.07 74 1016.2
20260905020244 63 281 3.0 5.0 0.00 0.07 0.07 74 1016.1
20260905015744 63 289 3.0 5.0 0.00 0.07 0.07 73 1016.1
20260905015244 64 322 2.0 3.0 0.00 0.07 0.07 73 1016.1
20260905014243 64 287 1.0 4.0 0.00 0.07 0.07 73 1016.1
20260905013743 64 266 2.0 4.0 0.00 0.07 0.07 73 1016.1
20260905013243 64 287 0.0 4.0 0.00 0.07 0.07 74 1016.0
20260905012743 63 294 2.0 5.0 0.00 0.07 0.07 75 1016.1
20260905011743 63 282 3.0 8.0 0.00 0.07 0.07 74 1015.9
20260905010743 63 289 4.0 6.0 0.00 0.07 0.07 74 1015.8
20260905010243 63 246 4.0 7.0 0.00 0.07 0.07 75 1015.8
20260905005743 63 315 4.0 7.0 0.00 0.07 0.07 75 1015.6
20260905005242 63 278 2.0 6.0 0.00 0.07 0.07 75 1015.5
20260905004742 63 264 3.0 6.0 0.00 0.07 0.07 75 1015.6
20260905004242 62 250 0.0 8.0 0.00 0.07 0.07 77 1015.5
20260905003742 62 288 2.0 8.0 0.00 0.07 0.07 77 1015.4
20260905003242 62 240 2.0 8.0 0.00 0.07 0.07 77 1015.3
20260905002742 62 294 5.0 8.0 0.00 0.07 0.07 77 1015.5
20260905002242 62 234 1.0 7.0 0.00 0.07 0.07 78 1015.3
20260905001742 62 269 3.0 8.0 0.00 0.07 0.07 77 1015.4
20260905001242 63 294 2.0 9.0 0.00 0.07 0.07 76 1015.5
20260905000741 63 31 3.0 9.0 0.00 0.07 0.07 76 1015.4
20260905000241 63 20 2.0 8.0 0.00 0.07 0.07 76 1015.4
20260904235741 63 359 1.0 8.0 0.00 0.07 0.07 76 1015.2
20260904234241 63 264 6.0 8.0 0.00 0.07 0.07 76 1015.3
20260904233741 63 290 3.0 8.0 0.00 0.07 0.07 76 1015.3
20260904232741 63 346 3.0 8.0 0.00 0.07 0.07 76 1015.3
20260904232240 63 294 2.0 7.0 0.00 0.07 0.07 76 1015.3
20260904231741 63 278 2.0 7.0 0.00 0.07 0.07 76 1015.2
20260904231240 63 259 3.0 7.0 0.00 0.07 0.07 77 1015.1
20260904230740 63 322 2.0 7.0 0.00 0.07 0.07 76 1015.1
20260904230240 63 259 3.0 6.0 0.00 0.07 0.07 76 1015.1
20260904225740 62 310 1.0 8.0 0.00 0.07 0.07 77 1015.1
20260904225240 61 266 0.0 8.0 0.00 0.07 0.07 79 1015.1
20260904223739 62 240 4.0 8.0 0.00 0.07 0.07 78 1015.0
20260904222739 62 256 2.0 9.0 0.00 0.07 0.07 79 1015.0
20260904222239 62 331 9.0 11.0 0.00 0.07 0.07 79 1014.9
20260904221739 62 292 7.0 11.0 0.00 0.07 0.07 78 1014.9
20260904221239 62 10 5.0 9.0 0.00 0.07 0.07 80 1014.9
20260904220739 62 318 3.0 9.0 0.00 0.07 0.07 79 1015.0
20260904215739 62 345 5.0 9.0 0.00 0.07 0.07 79 1015.0
20260904214738 62 278 4.0 7.0 0.00 0.07 0.07 80 1015.1
20260904214238 62 305 7.0 8.0 0.00 0.07 0.07 80 1015.1
20260904213738 62 245 3.0 9.0 0.00 0.07 0.07 79 1015.1
20260904213238 62 21 6.0 9.0 0.00 0.07 0.07 79 1015.2
20260904212738 62 263 2.0 7.0 0.00 0.07 0.07 79 1015.2
20260904212238 62 338 5.0 8.0 0.00 0.07 0.07 79 1015.2
20260904211738 62 297 3.0 8.0 0.00 0.07 0.07 77 1015.1
20260904211237 63 333 4.0 6.0 0.00 0.07 0.07 76 1015.1
20260904210738 63 238 4.0 6.0 0.00 0.07 0.07 75 1015.1
20260904210238 62 49 4.0 6.0 0.00 0.07 0.07 76 1015.1
20260904205737 62 272 4.0 5.0 0.00 0.07 0.07 78 1015.1
20260904205237 62 327 5.0 7.0 0.00 0.07 0.07 79 1015.1
20260904204737 61 338 2.0 8.0 0.00 0.07 0.07 79 1015.0
20260904204237 61 282 2.0 8.0 0.00 0.07 0.07 80 1015.0
20260904203737 61 308 6.0 8.0 0.00 0.07 0.07 79 1015.0
20260904202737 61 280 3.0 8.0 0.00 0.07 0.07 80 1015.0
20260904202236 61 348 2.0 9.0 0.00 0.07 0.07 80 1015.0
20260904201736 60 272 3.0 9.0 0.00 0.07 0.07 81 1014.9
20260904201236 60 271 2.0 7.0 0.00 0.07 0.07 81 1014.9
20260904195737 59 263 3.0 7.0 0.00 0.07 0.07 82 1015.0
20260904195236 59 279 2.0 7.0 0.00 0.07 0.07 82 1015.0
20260904194236 59 320 4.0 6.0 0.00 0.07 0.07 84 1015.0
20260904193236 59 263 4.0 8.0 0.00 0.07 0.07 82 1015.2
20260904192736 59 311 1.0 8.0 0.00 0.07 0.07 82 1015.1
20260904192236 59 328 2.0 6.0 0.00 0.07 0.07 82 1015.0
20260904191736 59 288 2.0 5.0 0.00 0.07 0.07 83 1015.0
20260904191235 58 296 0.0 6.0 0.00 0.07 0.07 83 1015.1
20260904190735 58 302 2.0 6.0 0.00 0.07 0.07 83 1015.1
20260904185236 57 324 2.0 6.0 0.00 0.07 0.07 82 1014.9
20260904184735 58 347 2.0 6.0 0.00 0.07 0.07 82 1014.9
20260904184235 57 11 6.0 6.0 0.00 0.07 0.07 84 1015.0
20260904182735 56 283 3.0 6.0 0.00 0.07 0.07 86 1014.8
20260904182234 56 278 2.0 5.0 0.00 0.07 0.07 85 1014.8
20260904181734 56 275 3.0 5.0 0.00 0.07 0.07 86 1014.7
20260904181234 56 271 2.0 5.0 0.00 0.07 0.07 86 1014.7
20260904180734 56 296 0.0 5.0 0.00 0.07 0.07 86 1014.8
20260904180234 57 262 1.0 5.0 0.00 0.07 0.07 85 1014.7
20260904175234 59 286 3.0 4.0 0.00 0.07 0.07 83 1014.7
20260904174734 60 263 0.0 2.0 0.00 0.07 0.07 85 1014.7
20260904174234 60 241 1.0 4.0 0.00 0.07 0.07 85 1014.6
20260904173733 59 150 0.0 4.0 0.00 0.07 0.07 88 1014.7
20260904173233 59 128 0.0 3.0 0.00 0.07 0.07 88 1014.6
20260904172733 58 98 2.0 3.0 0.00 0.07 0.07 89 1014.6
20260904171733 57 311 0.0 3.0 0.00 0.07 0.07 89 1014.6
20260904171233 57 359 3.0 3.0 0.00 0.07 0.07 91 1014.6
20260904170733 57 30 2.0 3.0 0.00 0.07 0.07 89 1014.7
20260904165733 57 254 0.0 3.0 0.00 0.07 0.07 91 1014.8
20260904165233 57 245 1.0 3.0 0.00 0.07 0.07 92 1014.8
20260904164733 56 245 2.0 3.0 0.00 0.07 0.07 92 1014.8
20260904164232 56 335 1.0 2.0 0.00 0.07 0.07 92 1014.7
20260904163232 55 15 0.0 5.0 0.00 0.07 0.07 93 1014.7
20260904162733 56 113 2.0 5.0 0.00 0.07 0.07 91 1014.8
20260904162232 56 89 5.0 5.0 0.00 0.07 0.07 93 1014.7
20260904161232 56 129 3.0 4.0 0.00 0.07 0.07 93 1014.7
20260904160732 56 94 0.0 0.0 0.00 0.07 0.07 93 1014.7
20260904160301 56 96 0.0 0.0 0.00 0.07 0.07 94 1014.6
20260904155802 56 96 0.0 0.0 0.00 0.07 0.07 94 1014.7
20260904155232 55 131 0.0 3.0 0.00 0.07 0.07 95 1014.7
20260904154802 54 131 0.0 3.0 0.00 0.07 0.07 95 1014.6
20260904154301 54 131 2.0 3.0 0.00 0.07 0.07 95 1014.6
20260904153731 54 117 1.0 3.0 0.00 0.07 0.07 94 1014.5
20260904153301 55 139 0.0 3.0 0.01 0.07 0.07 94 1014.4
20260904152731 55 162 0.0 0.0 0.01 0.07 0.07 96 1014.2
20260904152300 54 162 0.0 2.0 0.01 0.07 0.07 96 1014.2
20260904151800 54 290 0.0 5.0 0.01 0.07 0.07 96 1014.0
20260904151300 53 237 2.0 5.0 0.01 0.07 0.07 95 1013.9
20260904150301 53 282 4.0 6.0 0.02 0.07 0.07 96 1013.8
20260904145800 53 273 2.0 5.0 0.02 0.07 0.07 96 1013.9
20260904144800 53 265 2.0 4.0 0.02 0.07 0.07 96 1013.7
20260904143229 52 294 4.0 6.0 0.02 0.06 0.06 96 1013.6
20260904142730 52 264 3.0 5.0 0.02 0.06 0.06 96 1013.6
20260904142300 52 252 2.0 4.0 0.03 0.06 0.06 96 1013.6
20260904141759 52 279 2.0 5.0 0.03 0.06 0.06 96 1013.6
20260904140259 52 267 4.0 5.0 0.02 0.05 0.05 96 1013.4
20260904135759 52 267 4.0 5.0 0.02 0.05 0.05 96 1013.5
20260904135258 52 283 4.0 4.0 0.02 0.05 0.05 96 1013.4
20260904134758 52 108 1.0 3.0 0.02 0.05 0.05 95 1013.4
20260904134258 52 108 1.0 2.0 0.01 0.04 0.04 95 1013.3
20260904133758 52 108 0.0 1.0 0.01 0.04 0.04 95 1013.3
20260904133258 52 108 0.0 1.0 0.02 0.04 0.04 95 1013.3
20260904132758 52 108 0.0 0.0 0.02 0.04 0.04 95 1013.2
20260904132258 52 108 0.0 2.0 0.01 0.03 0.03 95 1013.1
20260904131758 52 108 0.0 3.0 0.01 0.03 0.03 95 1013.1
20260904131258 52 108 1.0 3.0 0.01 0.03 0.03 95 1013.2
20260904130758 52 265 0.0 2.0 0.01 0.03 0.03 95 1013.0
20260904130258 52 264 0.0 2.0 0.02 0.03 0.03 95 1012.9
20260904125757 52 165 0.0 4.0 0.02 0.03 0.03 95 1012.9
20260904125258 52 127 0.0 7.0 0.02 0.03 0.03 95 1012.9
20260904123757 52 164 0.0 2.0 0.02 0.03 0.03 94 1012.7
20260904123257 52 164 0.0 3.0 0.02 0.03 0.02 94 1012.6
20260904122757 52 138 0.0 4.0 0.02 0.03 0.02 94 1012.6
20260904122257 52 257 1.0 4.0 0.02 0.03 0.02 94 1012.6
20260904121757 52 245 2.0 5.0 0.02 0.04 0.02 94 1012.4
20260904121257 52 255 2.0 5.0 0.02 0.05 0.02 94 1012.2
20260904120757 52 266 5.0 5.0 0.02 0.06 0.02 94 1012.2
20260904120256 52 272 2.0 5.0 0.01 0.06 0.01 94 1012.2
20260904115756 52 275 2.0 5.0 0.01 0.06 0.01 94 1012.3
20260904115256 52 277 0.0 4.0 0.01 0.07 0.01 94 1012.4
20260904114756 52 279 2.0 3.0 0.01 0.07 0.01 94 1012.4
20260904114256 52 148 0.0 0.0 0.01 0.08 0.01 94 1012.3
20260904113256 52 148 0.0 0.0 0.00 0.08 0.00 94 1012.3
20260904112756 52 148 0.0 2.0 0.00 0.09 0.00 93 1012.3
20260904112256 52 148 0.0 2.0 0.00 0.10 0.00 93 1012.3
20260904111756 52 148 0.0 0.0 0.00 0.10 0.00 93 1012.2
20260904110756 52 148 0.0 0.0 0.00 0.10 0.00 93 1012.2
20260904110256 52 148 0.0 0.0 0.00 0.10 0.00 93 1012.2
20260904105255 52 148 0.0 0.0 0.00 0.10 0.00 92 1012.2
20260904104755 52 148 0.0 0.0 0.00 0.10 0.00 92 1012.1
20260904103755 53 148 0.0 3.0 0.00 0.10 0.00 91 1012.1
20260904102755 53 270 0.0 0.0 0.00 0.10 0.00 90 1012.1
20260904102255 53 271 0.0 0.0 0.00 0.10 0.00 90 1012.0
20260904101755 53 271 0.0 1.0 0.00 0.10 0.00 90 1011.9
20260904101254 53 271 0.0 4.0 0.00 0.10 0.00 90 1011.8
20260904100754 53 271 0.0 4.0 0.00 0.10 0.00 90 1011.7
20260904100254 53 260 0.0 5.0 0.00 0.10 0.00 91 1011.7